User: anonymous   Login
Location: Buchloe
(48.0161°N, 10.7316°E)
Time: 16:51:02
(UTC+02:00)
Language:

ISS - Orbit

View from above orbital plane
View from above orbital plane
View from above satellite
View from above satellite

Ground track
Ground track

The orbit data is extracted from the following two-line orbital elements,

1 25544U 98067A   18229.74435275  .00016717  00000-0  10270-3 0  9028
2 25544  51.6400  71.9306 0005585  71.2325 288.9433 15.53844432  8089
Epoch (UTC): 17 August 2018 17:51:52
Eccentricity: 0.0005585
inclination: 51.6400°
perigee height: 402 km
apogee height: 409 km
right ascension of ascending node: 71.9306°
argument of perigee: 71.2325°
revolutions per day: 15.53844432
mean anomaly at epoch: 288.9433°
orbit number at epoch: 808

The dashed part of the orbit path shows where the satellite is in the earth's shadow,  

DLR